DRGN03 YAMB-YAMB

Flight info

Callsign DRGN03
Flight time 3h 28m
Altitude 29000
Route JEDDA DCT SUSGI DCT RK DCT KELPI DCT FLATY DCT NETTY DCT 294607S1554333E 301748S1552545E 300350S1544910E DCT SEMAJ Z832 RIRBO
Aircraft A332/H-SDE3GHIJ2J3J5M1RVWXY/LB2D1

Departure

Time 2026-05-07 23:52
Airport RAAF Base Amberley (YAMB)

Arrival

Time 2026-05-08 03:20
Airport RAAF Base Amberley (YAMB)
Time Latitude Longitude Altitude Speed Heading
2026-05-07 23:44 -27.62467 152.70264 103 ft 7 kts 85°
2026-05-07 23:45 -27.62447 152.70322 101 ft 9 kts 67°
2026-05-07 23:45 -27.62429 152.70388 102 ft 8 kts 86°
2026-05-07 23:45 -27.62465 152.70433 104 ft 9 kts 147°
2026-05-07 23:45 -27.62529 152.70465 104 ft 11 kts 157°
2026-05-07 23:46 -27.62605 152.70498 105 ft 12 kts 159°
2026-05-07 23:46 -27.62689 152.70535 106 ft 14 kts 158°
2026-05-07 23:46 -27.62788 152.70580 106 ft 17 kts 158°
2026-05-07 23:46 -27.62904 152.70634 107 ft 19 kts 157°
2026-05-07 23:47 -27.63028 152.70690 106 ft 20 kts 159°
2026-05-07 23:47 -27.63163 152.70745 105 ft 21 kts 159°
2026-05-07 23:47 -27.63292 152.70803 105 ft 20 kts 159°
2026-05-07 23:47 -27.63424 152.70859 105 ft 21 kts 159°
2026-05-07 23:48 -27.63556 152.70920 106 ft 20 kts 159°
2026-05-07 23:48 -27.63685 152.70975 106 ft 20 kts 159°
2026-05-07 23:48 -27.63813 152.71031 108 ft 19 kts 159°
2026-05-07 23:48 -27.63935 152.71084 110 ft 18 kts 159°
2026-05-07 23:49 -27.64053 152.71133 110 ft 18 kts 160°
2026-05-07 23:49 -27.64173 152.71188 109 ft 19 kts 156°
2026-05-07 23:49 -27.64298 152.71245 107 ft 20 kts 159°
2026-05-07 23:49 -27.64437 152.71303 106 ft 22 kts 160°
2026-05-07 23:50 -27.64577 152.71361 106 ft 20 kts 159°
2026-05-07 23:50 -27.64691 152.71412 105 ft 14 kts 158°
2026-05-07 23:50 -27.64757 152.71474 107 ft 12 kts 121°
2026-05-07 23:50 -27.64755 152.71551 108 ft 10 kts 75°
2026-05-07 23:51 -27.64727 152.71615 108 ft 8 kts 51°
2026-05-07 23:51 -27.64679 152.71618 107 ft 7 kts 345°
2026-05-07 23:51 -27.64657 152.71609 108 ft 20 kts 340°
2026-05-07 23:51 -27.64267 152.71427 108 ft 101 kts 338°
2026-05-07 23:52 -27.63385 152.71060 119 ft 164 kts 340°
2026-05-07 23:52 -27.62319 152.70590 833 ft 161 kts 339°
2026-05-07 23:52 -27.61262 152.70116 1600 ft 167 kts 338°
2026-05-07 23:52 -27.60147 152.69612 2169 ft 181 kts 339°
2026-05-07 23:53 -27.58907 152.69083 2546 ft 199 kts 338°
2026-05-07 23:53 -27.57573 152.68508 3043 ft 208 kts 338°
2026-05-07 23:53 -27.56218 152.67908 3611 ft 210 kts 333°
2026-05-07 23:53 -27.55058 152.66806 3891 ft 231 kts 306°
2026-05-07 23:54 -27.54156 152.65218 4221 ft 249 kts 298°
2026-05-07 23:54 -27.53285 152.63479 4692 ft 258 kts 298°
2026-05-07 23:54 -27.52359 152.61732 5287 ft 261 kts 300°
2026-05-07 23:54 -27.51373 152.59998 5847 ft 265 kts 301°
2026-05-07 23:55 -27.50340 152.58265 6413 ft 269 kts 302°
2026-05-07 23:55 -27.49254 152.56478 6769 ft 284 kts 302°
2026-05-07 23:55 -27.48135 152.54654 7543 ft 282 kts 302°
2026-05-07 23:55 -27.47028 152.52852 8287 ft 284 kts 302°
2026-05-07 23:56 -27.45904 152.51019 9015 ft 285 kts 302°
2026-05-07 23:56 -27.44773 152.49171 9766 ft 287 kts 302°
2026-05-07 23:56 -27.43633 152.47308 10378 ft 295 kts 302°
2026-05-07 23:56 -27.42429 152.45334 10578 ft 316 kts 302°
2026-05-07 23:57 -27.41141 152.43225 10816 ft 335 kts 302°
2026-05-07 23:57 -27.39803 152.41043 11457 ft 339 kts 302°
2026-05-07 23:57 -27.38469 152.38846 12202 ft 341 kts 300°
2026-05-07 23:57 -27.37263 152.36538 12904 ft 343 kts 298°
2026-05-07 23:58 -27.36057 152.34211 13669 ft 346 kts 298°
2026-05-07 23:58 -27.34836 152.31863 14374 ft 348 kts 298°
2026-05-07 23:58 -27.33610 152.29509 15111 ft 349 kts 298°
2026-05-07 23:58 -27.32379 152.27147 15813 ft 350 kts 298°
2026-05-07 23:59 -27.31146 152.24783 16522 ft 352 kts 298°
2026-05-07 23:59 -27.29904 152.22401 17208 ft 354 kts 298°
2026-05-07 23:59 -27.28670 152.20038 17903 ft 356 kts 298°
2026-05-07 23:59 -27.27412 152.17630 18598 ft 358 kts 298°
2026-05-08 00:00 -27.26147 152.15211 19267 ft 358 kts 298°
2026-05-08 00:00 -27.24882 152.12794 19981 ft 357 kts 298°
2026-05-08 00:00 -27.23622 152.10387 20685 ft 358 kts 298°
2026-05-08 00:00 -27.22357 152.07971 21355 ft 359 kts 298°
2026-05-08 00:01 -27.21088 152.05546 22058 ft 360 kts 298°
2026-05-08 00:01 -27.19831 152.03148 22748 ft 361 kts 298°
2026-05-08 00:01 -27.18554 152.00712 23451 ft 362 kts 298°
2026-05-08 00:01 -27.17123 151.98390 24090 ft 367 kts 308°
2026-05-08 00:02 -27.15196 151.96446 24747 ft 374 kts 320°
2026-05-08 00:02 -27.12880 151.95039 25378 ft 385 kts 332°
2026-05-08 00:02 -27.10235 151.94263 25977 ft 398 kts 342°
2026-05-08 00:02 -27.07499 151.93786 26559 ft 399 kts 342°
2026-05-08 00:03 -27.04777 151.93306 27035 ft 402 kts 342°
2026-05-08 00:03 -27.02003 151.92809 27221 ft 404 kts 342°
2026-05-08 00:03 -26.99234 151.92310 27244 ft 403 kts 342°
2026-05-08 00:03 -26.96469 151.91811 27243 ft 402 kts 342°
2026-05-08 00:04 -26.93709 151.91312 27241 ft 402 kts 342°
2026-05-08 00:04 -26.90938 151.90811 27237 ft 403 kts 342°
2026-05-08 00:04 -26.88163 151.90308 27239 ft 403 kts 342°
2026-05-08 00:04 -26.85392 151.89808 27239 ft 402 kts 342°
2026-05-08 00:05 -26.82618 151.89309 27240 ft 403 kts 342°
2026-05-08 00:05 -26.79852 151.88810 27239 ft 403 kts 342°
2026-05-08 00:05 -26.77080 151.88310 27239 ft 403 kts 342°
2026-05-08 00:05 -26.74305 151.87809 27238 ft 403 kts 342°
2026-05-08 00:06 -26.71530 151.87309 27239 ft 403 kts 342°
2026-05-08 00:06 -26.68760 151.86811 27237 ft 403 kts 342°
2026-05-08 00:06 -26.65989 151.86312 27235 ft 403 kts 342°
2026-05-08 00:06 -26.63213 151.85812 27240 ft 404 kts 342°
2026-05-08 00:07 -26.60434 151.85311 27237 ft 405 kts 342°
2026-05-08 00:07 -26.57655 151.84813 27231 ft 404 kts 342°
2026-05-08 00:07 -26.54882 151.84315 27235 ft 404 kts 342°
2026-05-08 00:07 -26.52142 151.83822 27238 ft 404 kts 342°
2026-05-08 00:08 -26.49331 151.83317 27236 ft 404 kts 342°
2026-05-08 00:08 -26.46580 151.82823 27234 ft 404 kts 342°
2026-05-08 00:08 -26.43798 151.82323 27230 ft 405 kts 342°
2026-05-08 00:08 -26.41017 151.81825 27230 ft 404 kts 342°
2026-05-08 00:09 -26.38239 151.81327 27227 ft 404 kts 342°
2026-05-08 00:09 -26.35455 151.80828 27226 ft 404 kts 342°
2026-05-08 00:09 -26.32674 151.80330 27231 ft 405 kts 342°
2026-05-08 00:09 -26.29890 151.79832 27230 ft 405 kts 342°
2026-05-08 00:10 -26.27150 151.79343 27235 ft 404 kts 342°
2026-05-08 00:10 -26.24368 151.78845 27227 ft 404 kts 342°
2026-05-08 00:10 -26.21587 151.78348 27229 ft 405 kts 342°
2026-05-08 00:10 -26.18806 151.77851 27231 ft 405 kts 342°
2026-05-08 00:11 -26.16024 151.77355 27231 ft 404 kts 342°
2026-05-08 00:11 -26.13242 151.76858 27230 ft 404 kts 342°
2026-05-08 00:11 -26.10458 151.76362 27229 ft 405 kts 342°
2026-05-08 00:11 -26.07671 151.75865 27228 ft 405 kts 342°
2026-05-08 00:12 -26.04890 151.75370 27228 ft 404 kts 342°
2026-05-08 00:12 -26.02111 151.74875 27232 ft 404 kts 342°
2026-05-08 00:12 -25.99361 151.74385 27230 ft 405 kts 342°
2026-05-08 00:12 -25.96581 151.73890 27232 ft 405 kts 342°
2026-05-08 00:13 -25.93795 151.73395 27232 ft 405 kts 342°
2026-05-08 00:13 -25.91018 151.72902 27231 ft 404 kts 342°
2026-05-08 00:13 -25.88231 151.72407 27234 ft 405 kts 342°
2026-05-08 00:13 -25.85453 151.71913 27233 ft 405 kts 342°
2026-05-08 00:14 -25.82669 151.71414 27230 ft 405 kts 341°
2026-05-08 00:14 -25.79850 151.70880 27233 ft 419 kts 341°
2026-05-08 00:14 -25.76912 151.70322 27234 ft 435 kts 341°
2026-05-08 00:14 -25.73864 151.69760 27230 ft 451 kts 342°
2026-05-08 00:15 -25.70739 151.69203 27228 ft 455 kts 342°
2026-05-08 00:15 -25.67613 151.68661 27231 ft 454 kts 342°
2026-05-08 00:15 -25.64492 151.68121 27232 ft 453 kts 342°
2026-05-08 00:15 -25.61423 151.67442 27232 ft 446 kts 338°
2026-05-08 00:16 -25.58473 151.66443 27233 ft 441 kts 332°
2026-05-08 00:16 -25.55691 151.65167 27232 ft 435 kts 327°
2026-05-08 00:16 -25.52990 151.63669 27233 ft 433 kts 326°
2026-05-08 00:16 -25.50297 151.62170 27231 ft 433 kts 326°
2026-05-08 00:17 -25.47597 151.60675 27233 ft 433 kts 326°
2026-05-08 00:17 -25.44903 151.59188 27232 ft 433 kts 326°
2026-05-08 00:17 -25.42207 151.57702 27232 ft 432 kts 327°
2026-05-08 00:17 -25.39516 151.56219 27231 ft 433 kts 327°
2026-05-08 00:18 -25.36824 151.54736 27233 ft 432 kts 327°
2026-05-08 00:18 -25.34125 151.53250 27232 ft 432 kts 327°
2026-05-08 00:18 -25.31428 151.51765 27232 ft 433 kts 327°
2026-05-08 00:18 -25.28730 151.50281 27230 ft 433 kts 327°
2026-05-08 00:19 -25.26035 151.48797 27233 ft 433 kts 327°
2026-05-08 00:19 -25.23337 151.47314 27231 ft 432 kts 327°
2026-05-08 00:19 -25.20649 151.45837 27230 ft 433 kts 327°
2026-05-08 00:19 -25.17980 151.44370 27234 ft 433 kts 327°
2026-05-08 00:20 -25.15285 151.42890 27232 ft 433 kts 327°
2026-05-08 00:20 -25.12586 151.41409 27226 ft 433 kts 327°
2026-05-08 00:20 -25.09888 151.39929 27231 ft 433 kts 327°
2026-05-08 00:20 -25.07193 151.38451 27232 ft 433 kts 327°
2026-05-08 00:21 -25.04495 151.36972 27226 ft 433 kts 327°
2026-05-08 00:21 -25.01802 151.35496 27229 ft 433 kts 327°
2026-05-08 00:21 -24.99102 151.34018 27224 ft 433 kts 327°
2026-05-08 00:21 -24.96408 151.32543 27229 ft 433 kts 327°
2026-05-08 00:22 -24.93710 151.31067 27230 ft 433 kts 327°
2026-05-08 00:22 -24.91014 151.29592 27224 ft 433 kts 327°
2026-05-08 00:22 -24.88316 151.28117 27225 ft 433 kts 327°
2026-05-08 00:22 -24.85614 151.26642 27228 ft 433 kts 327°
2026-05-08 00:23 -24.82916 151.25169 27228 ft 433 kts 327°
2026-05-08 00:23 -24.80210 151.23703 27226 ft 433 kts 328°
2026-05-08 00:23 -24.77496 151.22254 27226 ft 434 kts 328°
2026-05-08 00:23 -24.74781 151.20801 27224 ft 433 kts 328°
2026-05-08 00:24 -24.72986 151.19833 27226 ft 433 kts 328°
2026-05-08 00:24 -24.70278 151.18363 27224 ft 434 kts 327°
2026-05-08 00:24 -24.67575 151.16889 27222 ft 433 kts 327°
2026-05-08 00:24 -24.63993 151.14933 27221 ft 433 kts 327°
2026-05-08 00:25 -24.62167 151.13936 27218 ft 433 kts 327°
2026-05-08 00:25 -24.59467 151.12462 27216 ft 434 kts 327°
2026-05-08 00:25 -24.55890 151.10510 27213 ft 434 kts 327°
2026-05-08 00:25 -24.54064 151.09515 27208 ft 433 kts 327°
2026-05-08 00:26 -24.51366 151.08043 27215 ft 434 kts 327°
2026-05-08 00:26 -24.48659 151.06568 27208 ft 434 kts 327°
2026-05-08 00:26 -24.45982 151.05113 27209 ft 434 kts 327°
2026-05-08 00:26 -24.43276 151.03644 27204 ft 434 kts 327°
2026-05-08 00:27 -24.40570 151.02174 27206 ft 434 kts 327°
2026-05-08 00:27 -24.37860 151.00703 27207 ft 434 kts 327°
2026-05-08 00:27 -24.35154 150.99234 27207 ft 434 kts 327°
2026-05-08 00:27 -24.32448 150.97766 27201 ft 434 kts 327°
2026-05-08 00:28 -24.29739 150.96297 27204 ft 434 kts 327°
2026-05-08 00:28 -24.27029 150.94830 27202 ft 434 kts 327°
2026-05-08 00:28 -24.24313 150.93359 27198 ft 435 kts 327°
2026-05-08 00:28 -24.21595 150.91887 27196 ft 435 kts 327°
2026-05-08 00:29 -24.18884 150.90421 27197 ft 435 kts 327°
2026-05-08 00:29 -24.16170 150.88953 27197 ft 435 kts 327°
2026-05-08 00:29 -24.13484 150.87501 27198 ft 435 kts 327°
2026-05-08 00:29 -24.10767 150.86034 27196 ft 435 kts 327°
2026-05-08 00:30 -24.08049 150.84564 27194 ft 435 kts 327°
2026-05-08 00:30 -24.05328 150.83092 27189 ft 436 kts 327°
2026-05-08 00:30 -24.02613 150.81625 27187 ft 436 kts 327°
2026-05-08 00:30 -23.99890 150.80156 27190 ft 435 kts 327°
2026-05-08 00:31 -23.97171 150.78692 27204 ft 435 kts 327°
2026-05-08 00:31 -23.94453 150.77228 27200 ft 436 kts 328°
2026-05-08 00:31 -23.91725 150.75761 27183 ft 437 kts 328°
2026-05-08 00:31 -23.88996 150.74295 27199 ft 436 kts 328°
2026-05-08 00:32 -23.86304 150.72849 27191 ft 436 kts 328°
2026-05-08 00:32 -23.83576 150.71384 27196 ft 437 kts 328°
2026-05-08 00:32 -23.80848 150.69919 27193 ft 437 kts 328°
2026-05-08 00:32 -23.78116 150.68453 27188 ft 438 kts 328°
2026-05-08 00:33 -23.75388 150.66990 27202 ft 437 kts 328°
2026-05-08 00:33 -23.72663 150.65529 27194 ft 437 kts 328°
2026-05-08 00:33 -23.69940 150.64071 27192 ft 437 kts 328°
2026-05-08 00:33 -23.67193 150.62600 27201 ft 437 kts 328°
2026-05-08 00:34 -23.64453 150.61133 27192 ft 438 kts 328°
2026-05-08 00:34 -23.61726 150.59673 27202 ft 438 kts 328°
2026-05-08 00:34 -23.58977 150.58203 27204 ft 438 kts 328°
2026-05-08 00:34 -23.56277 150.56760 27205 ft 438 kts 328°
2026-05-08 00:35 -23.53541 150.55299 27205 ft 438 kts 328°
2026-05-08 00:35 -23.50800 150.53834 27202 ft 438 kts 328°
2026-05-08 00:35 -23.47932 150.52625 27213 ft 447 kts 338°
2026-05-08 00:35 -23.44838 150.51997 27204 ft 457 kts 347°
2026-05-08 00:36 -23.41622 150.51991 27208 ft 469 kts 358°
2026-05-08 00:36 -23.38377 150.52653 27211 ft 482 kts
2026-05-08 00:36 -23.35222 150.54020 27213 ft 495 kts 20°
2026-05-08 00:36 -23.32296 150.56074 27209 ft 508 kts 31°
2026-05-08 00:37 -23.29710 150.58758 27210 ft 520 kts 43°
2026-05-08 00:37 -23.27431 150.61840 27202 ft 524 kts 46°
2026-05-08 00:37 -23.25221 150.64998 27204 ft 524 kts 46°
2026-05-08 00:38 -23.20825 150.71239 27192 ft 523 kts 45°
2026-05-08 00:38 -23.18590 150.74354 27184 ft 522 kts 45°
2026-05-08 00:38 -23.16318 150.77497 27183 ft 522 kts 45°
2026-05-08 00:38 -23.14114 150.80534 27177 ft 522 kts 45°
2026-05-08 00:39 -23.11850 150.83649 27177 ft 521 kts 45°
2026-05-08 00:39 -23.09605 150.86736 27176 ft 521 kts 45°
2026-05-08 00:39 -23.07357 150.89826 27178 ft 521 kts 45°
2026-05-08 00:39 -23.05113 150.92909 27175 ft 521 kts 45°
2026-05-08 00:40 -23.02868 150.95992 27175 ft 520 kts 45°
2026-05-08 00:40 -23.00623 150.99073 27173 ft 520 kts 45°
2026-05-08 00:40 -22.98380 151.02150 27171 ft 520 kts 45°
2026-05-08 00:40 -22.96135 151.05227 27170 ft 520 kts 45°
2026-05-08 00:41 -22.93888 151.08306 27173 ft 520 kts 45°
2026-05-08 00:41 -22.91645 151.11376 27163 ft 519 kts 45°
2026-05-08 00:41 -22.89399 151.14450 27167 ft 519 kts 45°
2026-05-08 00:41 -22.87155 151.17518 27167 ft 519 kts 45°
2026-05-08 00:42 -22.84911 151.20586 27168 ft 519 kts 45°
2026-05-08 00:42 -22.82668 151.23649 27162 ft 519 kts 45°
2026-05-08 00:42 -22.80425 151.26712 27160 ft 519 kts 45°
2026-05-08 00:42 -22.78208 151.29737 27158 ft 518 kts 45°
2026-05-08 00:43 -22.75962 151.32799 27155 ft 518 kts 45°
2026-05-08 00:43 -22.73713 151.35863 27163 ft 518 kts 45°
2026-05-08 00:43 -22.71472 151.38916 27154 ft 518 kts 45°
2026-05-08 00:43 -22.69226 151.41973 27154 ft 518 kts 45°
2026-05-08 00:44 -22.66987 151.45019 27147 ft 517 kts 45°
2026-05-08 00:44 -22.64863 151.48180 27152 ft 524 kts 53°
2026-05-08 00:44 -22.63253 151.51740 27146 ft 533 kts 65°
2026-05-08 00:44 -22.62253 151.55577 27154 ft 540 kts 76°
2026-05-08 00:45 -22.61889 151.59641 27155 ft 545 kts 87°
2026-05-08 00:45 -22.62199 151.63758 27154 ft 549 kts 98°
2026-05-08 00:45 -22.63177 151.67761 27153 ft 550 kts 110°
2026-05-08 00:45 -22.64789 151.71514 27149 ft 550 kts 121°
2026-05-08 00:46 -22.66980 151.74895 27145 ft 547 kts 133°
2026-05-08 00:46 -22.69670 151.77786 27150 ft 542 kts 144°
2026-05-08 00:46 -22.72750 151.80089 27158 ft 534 kts 154°
2026-05-08 00:46 -22.75944 151.82085 27156 ft 524 kts 153°
2026-05-08 00:47 -22.78925 151.84283 27160 ft 515 kts 147°
2026-05-08 00:47 -22.81659 151.86741 27162 ft 505 kts 141°
2026-05-08 00:47 -22.84184 151.89329 27152 ft 494 kts 139°
2026-05-08 00:47 -22.86561 151.91935 27158 ft 492 kts 137°
2026-05-08 00:48 -22.88948 151.94621 27148 ft 498 kts 137°
2026-05-08 00:48 -22.91345 151.97340 27152 ft 499 kts 137°
2026-05-08 00:48 -22.93735 152.00056 27152 ft 497 kts 137°
2026-05-08 00:48 -22.96127 152.02771 27149 ft 497 kts 137°
2026-05-08 00:49 -22.98522 152.05486 27151 ft 497 kts 137°
2026-05-08 00:49 -23.00916 152.08198 27157 ft 498 kts 137°
2026-05-08 00:49 -23.03315 152.10917 27153 ft 498 kts 137°
2026-05-08 00:49 -23.05710 152.13632 27152 ft 498 kts 137°
2026-05-08 00:50 -23.08105 152.16348 27151 ft 498 kts 137°
2026-05-08 00:50 -23.10498 152.19065 27151 ft 498 kts 137°
2026-05-08 00:50 -23.12893 152.21784 27148 ft 498 kts 137°
2026-05-08 00:50 -23.15292 152.24509 27149 ft 498 kts 137°
2026-05-08 00:51 -23.17659 152.27200 27150 ft 498 kts 137°
2026-05-08 00:51 -23.20053 152.29924 27147 ft 498 kts 137°
2026-05-08 00:51 -23.22448 152.32650 27150 ft 498 kts 137°
2026-05-08 00:51 -23.24842 152.35376 27154 ft 498 kts 137°
2026-05-08 00:52 -23.27236 152.38103 27155 ft 498 kts 137°
2026-05-08 00:52 -23.29637 152.40841 27151 ft 498 kts 137°
2026-05-08 00:52 -23.32031 152.43572 27148 ft 498 kts 137°
2026-05-08 00:52 -23.34429 152.46308 27148 ft 498 kts 137°
2026-05-08 00:53 -23.36795 152.49010 27152 ft 499 kts 137°
2026-05-08 00:53 -23.39191 152.51748 27150 ft 499 kts 137°
2026-05-08 00:53 -23.41587 152.54487 27149 ft 499 kts 137°
2026-05-08 00:53 -23.43977 152.57222 27151 ft 499 kts 137°
2026-05-08 00:54 -23.46367 152.59958 27149 ft 499 kts 137°
2026-05-08 00:54 -23.48766 152.62705 27151 ft 499 kts 137°
2026-05-08 00:54 -23.51160 152.65447 27150 ft 499 kts 137°
2026-05-08 00:54 -23.53543 152.68191 27148 ft 499 kts 137°
2026-05-08 00:55 -23.55930 152.70942 27150 ft 499 kts 137°
2026-05-08 00:55 -23.58319 152.73692 27148 ft 499 kts 137°
2026-05-08 00:55 -23.60677 152.76403 27148 ft 499 kts 137°
2026-05-08 00:55 -23.63068 152.79152 27150 ft 499 kts 137°
2026-05-08 00:56 -23.65462 152.81905 27149 ft 499 kts 137°
2026-05-08 00:56 -23.67853 152.84654 27146 ft 499 kts 137°
2026-05-08 00:56 -23.70244 152.87406 27146 ft 499 kts 137°
2026-05-08 00:56 -23.72637 152.90160 27148 ft 500 kts 137°
2026-05-08 00:57 -23.75028 152.92920 27146 ft 500 kts 136°
2026-05-08 00:57 -23.77410 152.95688 27143 ft 501 kts 136°
2026-05-08 00:57 -23.79796 152.98457 27142 ft 500 kts 136°
2026-05-08 00:57 -23.82185 153.01223 27142 ft 500 kts 137°
2026-05-08 00:58 -23.84578 153.03988 27146 ft 501 kts 137°
2026-05-08 00:58 -23.86971 153.06750 27149 ft 501 kts 137°
2026-05-08 00:58 -23.89368 153.09517 27142 ft 501 kts 137°
2026-05-08 00:58 -23.91731 153.12246 27141 ft 501 kts 137°
2026-05-08 00:59 -23.94130 153.15018 27143 ft 501 kts 137°
2026-05-08 00:59 -23.96524 153.17787 27144 ft 501 kts 137°
2026-05-08 00:59 -23.98920 153.20560 27144 ft 501 kts 137°
2026-05-08 00:59 -24.01316 153.23335 27135 ft 501 kts 137°
2026-05-08 01:00 -24.03711 153.26110 27141 ft 502 kts 137°
2026-05-08 01:00 -24.06113 153.28897 27138 ft 502 kts 137°
2026-05-08 01:00 -24.08508 153.31676 27138 ft 502 kts 137°
2026-05-08 01:00 -24.10907 153.34461 27137 ft 502 kts 137°
2026-05-08 01:01 -24.13298 153.37240 27139 ft 502 kts 137°
2026-05-08 01:01 -24.15701 153.40033 27133 ft 502 kts 137°
2026-05-08 01:01 -24.18090 153.42812 27137 ft 501 kts 137°
2026-05-08 01:01 -24.20482 153.45598 27135 ft 502 kts 137°
2026-05-08 01:02 -24.22876 153.48386 27136 ft 502 kts 137°
2026-05-08 01:02 -24.25239 153.51140 27127 ft 502 kts 137°
2026-05-08 01:02 -24.27631 153.53930 27130 ft 502 kts 137°
2026-05-08 01:02 -24.30028 153.56727 27126 ft 502 kts 137°
2026-05-08 01:03 -24.32417 153.59517 27125 ft 502 kts 137°
2026-05-08 01:03 -24.34810 153.62313 27129 ft 502 kts 137°
2026-05-08 01:03 -24.37201 153.65109 27123 ft 502 kts 137°
2026-05-08 01:03 -24.39589 153.67903 27118 ft 502 kts 137°
2026-05-08 01:04 -24.41980 153.70702 27118 ft 503 kts 137°
2026-05-08 01:04 -24.44371 153.73504 27133 ft 503 kts 137°
2026-05-08 01:04 -24.46758 153.76301 27130 ft 503 kts 137°
2026-05-08 01:04 -24.49149 153.79107 27128 ft 503 kts 137°
2026-05-08 01:05 -24.51538 153.81910 27115 ft 503 kts 137°
2026-05-08 01:05 -24.53928 153.84716 27114 ft 503 kts 137°
2026-05-08 01:05 -24.56319 153.87525 27122 ft 503 kts 137°
2026-05-08 01:05 -24.58710 153.90337 27121 ft 503 kts 137°
2026-05-08 01:06 -24.61099 153.93147 27130 ft 503 kts 137°
2026-05-08 01:06 -24.63491 153.95964 27133 ft 503 kts 137°
2026-05-08 01:06 -24.65883 153.98782 27136 ft 503 kts 137°
2026-05-08 01:06 -24.68269 154.01594 27124 ft 504 kts 137°
2026-05-08 01:07 -24.70660 154.04413 27122 ft 504 kts 137°
2026-05-08 01:07 -24.73045 154.07229 27121 ft 504 kts 137°
2026-05-08 01:07 -24.75440 154.10057 27119 ft 504 kts 137°
2026-05-08 01:07 -24.77837 154.12890 27121 ft 504 kts 137°
2026-05-08 01:08 -24.80221 154.15709 27119 ft 504 kts 137°
2026-05-08 01:08 -24.82580 154.18499 27119 ft 504 kts 137°
2026-05-08 01:08 -24.84966 154.21324 27120 ft 504 kts 137°
2026-05-08 01:08 -24.87357 154.24157 27123 ft 504 kts 137°
2026-05-08 01:09 -24.89744 154.26985 27121 ft 504 kts 137°
2026-05-08 01:09 -24.92136 154.29823 27117 ft 505 kts 137°
2026-05-08 01:09 -24.94526 154.32659 27120 ft 504 kts 137°
2026-05-08 01:09 -24.96915 154.35496 27117 ft 505 kts 137°
2026-05-08 01:10 -24.99308 154.38339 27121 ft 505 kts 137°
2026-05-08 01:10 -25.00890 154.40219 27124 ft 505 kts 137°
2026-05-08 01:10 -25.04084 154.44019 27123 ft 505 kts 137°
2026-05-08 01:10 -25.06446 154.46831 27121 ft 505 kts 137°
2026-05-08 01:11 -25.08056 154.48749 27122 ft 506 kts 137°
2026-05-08 01:11 -25.11226 154.52526 27118 ft 506 kts 137°
2026-05-08 01:11 -25.12844 154.54456 27118 ft 506 kts 137°
2026-05-08 01:11 -25.16007 154.58230 27123 ft 506 kts 137°
2026-05-08 01:12 -25.17623 154.60160 27125 ft 506 kts 137°
2026-05-08 01:12 -25.19978 154.62973 27121 ft 506 kts 137°
2026-05-08 01:12 -25.22374 154.65837 27122 ft 506 kts 137°
2026-05-08 01:12 -25.24764 154.68695 27123 ft 506 kts 137°
2026-05-08 01:13 -25.27155 154.71558 27123 ft 507 kts 137°
2026-05-08 01:13 -25.29548 154.74424 27123 ft 507 kts 137°
2026-05-08 01:13 -25.31944 154.77294 27122 ft 507 kts 137°
2026-05-08 01:13 -25.34331 154.80156 27123 ft 507 kts 137°
2026-05-08 01:14 -25.36726 154.83027 27126 ft 507 kts 137°
2026-05-08 01:14 -25.39159 154.85841 27119 ft 503 kts 143°
2026-05-08 01:14 -25.41932 154.88141 27127 ft 493 kts 156°
2026-05-08 01:14 -25.44989 154.89737 27123 ft 479 kts 170°
2026-05-08 01:15 -25.48170 154.90584 27125 ft 465 kts 181°
2026-05-08 01:15 -25.51332 154.90964 27123 ft 461 kts 185°
2026-05-08 01:15 -25.54526 154.91300 27123 ft 462 kts 184°
2026-05-08 01:15 -25.57725 154.91717 27125 ft 464 kts 182°
2026-05-08 01:16 -25.60926 154.92219 27125 ft 465 kts 181°
2026-05-08 01:16 -25.64128 154.92774 27124 ft 466 kts 180°
2026-05-08 01:16 -25.67337 154.93357 27124 ft 466 kts 180°
2026-05-08 01:16 -25.70533 154.93945 27124 ft 466 kts 180°
2026-05-08 01:17 -25.73736 154.94536 27125 ft 466 kts 180°
2026-05-08 01:17 -25.76943 154.95127 27126 ft 466 kts 180°
2026-05-08 01:17 -25.80141 154.95715 27125 ft 466 kts 180°
2026-05-08 01:17 -25.83299 154.96296 27123 ft 466 kts 180°
2026-05-08 01:18 -25.86506 154.96886 27124 ft 466 kts 180°
2026-05-08 01:18 -25.89705 154.97474 27128 ft 466 kts 180°
2026-05-08 01:18 -25.92902 154.98062 27126 ft 466 kts 180°
2026-05-08 01:18 -25.96101 154.98651 27127 ft 466 kts 180°
2026-05-08 01:19 -25.99300 154.99241 27129 ft 465 kts 180°
2026-05-08 01:19 -26.02499 154.99830 27131 ft 465 kts 180°
2026-05-08 01:19 -26.05689 155.00419 27131 ft 465 kts 180°
2026-05-08 01:19 -26.08886 155.01008 27131 ft 465 kts 180°
2026-05-08 01:20 -26.12080 155.01598 27133 ft 465 kts 180°
2026-05-08 01:20 -26.15246 155.02183 27135 ft 465 kts 180°
2026-05-08 01:20 -26.18442 155.02773 27134 ft 465 kts 180°
2026-05-08 01:20 -26.21631 155.03363 27132 ft 465 kts 180°
2026-05-08 01:21 -26.24819 155.03953 27133 ft 465 kts 180°
2026-05-08 01:21 -26.28015 155.04545 27134 ft 465 kts 180°
2026-05-08 01:21 -26.31207 155.05136 27134 ft 465 kts 180°
2026-05-08 01:21 -26.34394 155.05727 27134 ft 464 kts 180°
2026-05-08 01:22 -26.37580 155.06317 27137 ft 464 kts 180°
2026-05-08 01:22 -26.40778 155.06911 27132 ft 464 kts 180°
2026-05-08 01:22 -26.43966 155.07503 27135 ft 464 kts 180°
2026-05-08 01:22 -26.47154 155.08096 27135 ft 464 kts 180°
2026-05-08 01:23 -26.50342 155.08689 27131 ft 464 kts 180°
2026-05-08 01:23 -26.53484 155.09273 27133 ft 463 kts 180°
2026-05-08 01:23 -26.56663 155.09865 27135 ft 463 kts 180°
2026-05-08 01:23 -26.59844 155.10457 27135 ft 463 kts 180°
2026-05-08 01:24 -26.63021 155.11049 27139 ft 462 kts 180°
2026-05-08 01:24 -26.66195 155.11641 27134 ft 462 kts 180°
2026-05-08 01:24 -26.69375 155.12234 27136 ft 462 kts 180°
2026-05-08 01:24 -26.72547 155.12826 27138 ft 462 kts 180°
2026-05-08 01:25 -26.75720 155.13418 27135 ft 461 kts 180°
2026-05-08 01:25 -26.78887 155.14010 27136 ft 461 kts 180°
2026-05-08 01:25 -26.82050 155.14601 27138 ft 461 kts 180°
2026-05-08 01:25 -26.85215 155.15193 27137 ft 461 kts 180°
2026-05-08 01:26 -26.88386 155.15786 27137 ft 461 kts 180°
2026-05-08 01:26 -26.91556 155.16379 27136 ft 461 kts 180°
2026-05-08 01:26 -26.94680 155.16965 27137 ft 461 kts 180°
2026-05-08 01:26 -26.97843 155.17558 27135 ft 461 kts 180°
2026-05-08 01:27 -27.01009 155.18152 27138 ft 461 kts 180°
2026-05-08 01:27 -27.04180 155.18747 27136 ft 461 kts 180°
2026-05-08 01:27 -27.07346 155.19341 27135 ft 461 kts 180°
2026-05-08 01:27 -27.10511 155.19936 27136 ft 461 kts 180°
2026-05-08 01:28 -27.13681 155.20532 27135 ft 462 kts 180°
2026-05-08 01:28 -27.16849 155.21128 27136 ft 462 kts 180°
2026-05-08 01:28 -27.20017 155.21724 27137 ft 462 kts 180°
2026-05-08 01:28 -27.23188 155.22322 27142 ft 462 kts 180°
2026-05-08 01:29 -27.26359 155.22919 27133 ft 462 kts 180°
2026-05-08 01:29 -27.29538 155.23519 27136 ft 463 kts 180°
2026-05-08 01:29 -27.32716 155.24119 27127 ft 463 kts 180°
2026-05-08 01:29 -27.35894 155.24719 27130 ft 463 kts 180°
2026-05-08 01:30 -27.39070 155.25319 27135 ft 463 kts 180°
2026-05-08 01:30 -27.42251 155.25920 27133 ft 463 kts 180°
2026-05-08 01:30 -27.45433 155.26522 27132 ft 463 kts 180°
2026-05-08 01:30 -27.48610 155.27124 27134 ft 463 kts 180°
2026-05-08 01:31 -27.51789 155.27726 27137 ft 463 kts 180°
2026-05-08 01:31 -27.54927 155.28320 27133 ft 463 kts 180°
2026-05-08 01:31 -27.58112 155.28924 27134 ft 463 kts 180°
2026-05-08 01:31 -27.61297 155.29528 27132 ft 463 kts 180°
2026-05-08 01:32 -27.64480 155.30132 27133 ft 463 kts 180°
2026-05-08 01:32 -27.67656 155.30735 27136 ft 463 kts 180°
2026-05-08 01:32 -27.70844 155.31340 27134 ft 463 kts 180°
2026-05-08 01:32 -27.74025 155.31945 27130 ft 463 kts 180°
2026-05-08 01:33 -27.77205 155.32550 27134 ft 463 kts 180°
2026-05-08 01:33 -27.80379 155.33154 27129 ft 463 kts 180°
2026-05-08 01:33 -27.83564 155.33761 27131 ft 463 kts 180°
2026-05-08 01:33 -27.86738 155.34366 27131 ft 462 kts 180°
2026-05-08 01:34 -27.89876 155.34964 27130 ft 462 kts 180°
2026-05-08 01:34 -27.93046 155.35569 27129 ft 462 kts 180°
2026-05-08 01:34 -27.96217 155.36174 27130 ft 462 kts 180°
2026-05-08 01:34 -27.99386 155.36779 27131 ft 462 kts 180°
2026-05-08 01:35 -28.02563 155.37386 27130 ft 462 kts 180°
2026-05-08 01:35 -28.05733 155.37992 27131 ft 462 kts 180°
2026-05-08 01:35 -28.08896 155.38598 27132 ft 461 kts 180°
2026-05-08 01:35 -28.12066 155.39204 27127 ft 461 kts 180°
2026-05-08 01:36 -28.15231 155.39811 27129 ft 461 kts 180°
2026-05-08 01:36 -28.18391 155.40417 27126 ft 460 kts 180°
2026-05-08 01:36 -28.21552 155.41023 27127 ft 460 kts 180°
2026-05-08 01:36 -28.24706 155.41628 27125 ft 460 kts 180°
2026-05-08 01:37 -28.27864 155.42234 27126 ft 460 kts 180°
2026-05-08 01:37 -28.31015 155.42839 27126 ft 459 kts 180°
2026-05-08 01:37 -28.34131 155.43438 27129 ft 459 kts 180°
2026-05-08 01:37 -28.37284 155.44045 27125 ft 459 kts 180°
2026-05-08 01:38 -28.40440 155.44653 27125 ft 459 kts 180°
2026-05-08 01:38 -28.43585 155.45259 27126 ft 458 kts 180°
2026-05-08 01:38 -28.46729 155.45865 27127 ft 458 kts 180°
2026-05-08 01:38 -28.49875 155.46472 27126 ft 458 kts 180°
2026-05-08 01:39 -28.53017 155.47078 27126 ft 458 kts 180°
2026-05-08 01:39 -28.56168 155.47687 27125 ft 458 kts 180°
2026-05-08 01:39 -28.59310 155.48293 27123 ft 458 kts 180°
2026-05-08 01:39 -28.62446 155.48899 27122 ft 457 kts 180°
2026-05-08 01:40 -28.65587 155.49506 27123 ft 457 kts 180°
2026-05-08 01:40 -28.68725 155.50113 27122 ft 457 kts 180°
2026-05-08 01:40 -28.71853 155.50718 27122 ft 457 kts 180°
2026-05-08 01:40 -28.74949 155.51323 27125 ft 457 kts 180°
2026-05-08 01:41 -28.78079 155.51966 27119 ft 457 kts 179°
2026-05-08 01:41 -28.81206 155.52619 27113 ft 457 kts 179°
2026-05-08 01:41 -28.84337 155.53274 27123 ft 457 kts 179°
2026-05-08 01:41 -28.87470 155.53926 27118 ft 457 kts 179°
2026-05-08 01:42 -28.90598 155.54576 27118 ft 456 kts 179°
2026-05-08 01:42 -28.93722 155.55223 27116 ft 456 kts 179°
2026-05-08 01:42 -28.96849 155.55871 27117 ft 456 kts 179°
2026-05-08 01:42 -28.99968 155.56518 27118 ft 456 kts 179°
2026-05-08 01:43 -29.03091 155.57165 27118 ft 456 kts 179°
2026-05-08 01:43 -29.06180 155.57806 27118 ft 455 kts 179°
2026-05-08 01:43 -29.09300 155.58455 27115 ft 455 kts 179°
2026-05-08 01:43 -29.12414 155.59101 27115 ft 455 kts 179°
2026-05-08 01:44 -29.15534 155.59750 27116 ft 455 kts 179°
2026-05-08 01:44 -29.18649 155.60398 27115 ft 455 kts 179°
2026-05-08 01:44 -29.21772 155.61048 27112 ft 455 kts 179°
2026-05-08 01:44 -29.24885 155.61697 27109 ft 454 kts 179°
2026-05-08 01:45 -29.28002 155.62346 27109 ft 455 kts 179°
2026-05-08 01:45 -29.31116 155.62995 27112 ft 454 kts 179°
2026-05-08 01:45 -29.34186 155.63636 27112 ft 454 kts 179°
2026-05-08 01:45 -29.37294 155.64285 27106 ft 454 kts 179°
2026-05-08 01:46 -29.40406 155.64935 27107 ft 454 kts 179°
2026-05-08 01:46 -29.43510 155.65584 27109 ft 454 kts 179°
2026-05-08 01:46 -29.46615 155.66234 27109 ft 454 kts 179°
2026-05-08 01:46 -29.49726 155.66885 27105 ft 453 kts 179°
2026-05-08 01:47 -29.52833 155.67536 27107 ft 453 kts 179°
2026-05-08 01:47 -29.55942 155.68187 27108 ft 453 kts 179°
2026-05-08 01:47 -29.59048 155.68839 27107 ft 453 kts 179°
2026-05-08 01:48 -29.65211 155.70133 27109 ft 453 kts 179°
2026-05-08 01:48 -29.68311 155.70784 27100 ft 452 kts 179°
2026-05-08 01:48 -29.71407 155.71435 27105 ft 452 kts 179°
2026-05-08 01:48 -29.74492 155.71893 27101 ft 440 kts 189°
2026-05-08 01:49 -29.77484 155.71622 27101 ft 424 kts 201°
2026-05-08 01:49 -29.80258 155.70671 27101 ft 410 kts 212°
2026-05-08 01:49 -29.82804 155.69266 27099 ft 405 kts 215°
2026-05-08 01:49 -29.85344 155.67837 27104 ft 406 kts 215°
2026-05-08 01:50 -29.87888 155.66413 27105 ft 406 kts 215°
2026-05-08 01:50 -29.90430 155.64992 27102 ft 405 kts 215°
2026-05-08 01:50 -29.92966 155.63573 27101 ft 405 kts 215°
2026-05-08 01:50 -29.95504 155.62151 27102 ft 405 kts 215°
2026-05-08 01:51 -29.98041 155.60728 27101 ft 405 kts 215°
2026-05-08 01:51 -30.00585 155.59301 27100 ft 405 kts 215°
2026-05-08 01:51 -30.03084 155.57897 27102 ft 405 kts 215°
2026-05-08 01:51 -30.05617 155.56474 27101 ft 405 kts 215°
2026-05-08 01:52 -30.08154 155.55047 27106 ft 405 kts 214°
2026-05-08 01:52 -30.10684 155.53624 27098 ft 405 kts 214°
2026-05-08 01:52 -30.13219 155.52197 27101 ft 405 kts 214°
2026-05-08 01:52 -30.15752 155.50770 27099 ft 404 kts 214°
2026-05-08 01:53 -30.18277 155.49347 27100 ft 404 kts 215°
2026-05-08 01:53 -30.20640 155.47659 27098 ft 392 kts 226°
2026-05-08 01:53 -30.22578 155.45511 27099 ft 382 kts 237°
2026-05-08 01:53 -30.24069 155.43012 27101 ft 374 kts 247°
2026-05-08 01:54 -30.25086 155.40273 27098 ft 368 kts 256°
2026-05-08 01:54 -30.25619 155.37395 27096 ft 365 kts 266°
2026-05-08 01:54 -30.25663 155.34467 27097 ft 364 kts 275°
2026-05-08 01:54 -30.25231 155.31625 27096 ft 365 kts 284°
2026-05-08 01:55 -30.24330 155.28870 27099 ft 367 kts 291°
2026-05-08 01:55 -30.23290 155.26169 27101 ft 368 kts 291°
2026-05-08 01:55 -30.22262 155.23465 27103 ft 368 kts 291°
2026-05-08 01:55 -30.21235 155.20759 27101 ft 368 kts 291°
2026-05-08 01:56 -30.20206 155.18050 27101 ft 368 kts 291°
2026-05-08 01:56 -30.19176 155.15343 27100 ft 368 kts 291°
2026-05-08 01:56 -30.18142 155.12633 27103 ft 368 kts 291°
2026-05-08 01:56 -30.17108 155.09924 27101 ft 368 kts 291°
2026-05-08 01:57 -30.16073 155.07215 27102 ft 368 kts 291°
2026-05-08 01:57 -30.15037 155.04508 27103 ft 368 kts 291°
2026-05-08 01:57 -30.14001 155.01802 27102 ft 368 kts 291°
2026-05-08 01:57 -30.12966 154.99098 27101 ft 369 kts 291°
2026-05-08 01:58 -30.12278 154.97305 27099 ft 369 kts 291°
2026-05-08 01:58 -30.11238 154.94593 27101 ft 369 kts 291°
2026-05-08 01:58 -30.09860 154.91003 27102 ft 369 kts 291°
2026-05-08 01:58 -30.09157 154.89172 27104 ft 369 kts 291°
2026-05-08 01:59 -30.08114 154.86460 27102 ft 369 kts 291°
2026-05-08 01:59 -30.07073 154.83752 27097 ft 369 kts 291°
2026-05-08 01:59 -30.06054 154.81097 27101 ft 362 kts 289°
2026-05-08 01:59 -30.05364 154.78365 27098 ft 347 kts 278°
2026-05-08 02:00 -30.05175 154.75643 27105 ft 335 kts 270°
2026-05-08 02:00 -30.05393 154.72974 27106 ft 335 kts 262°
2026-05-08 02:00 -30.06000 154.70336 27111 ft 344 kts 253°
2026-05-08 02:00 -30.07004 154.67809 27111 ft 349 kts 245°
2026-05-08 02:01 -30.08398 154.65486 27111 ft 354 kts 236°
2026-05-08 02:01 -30.10158 154.63453 27114 ft 362 kts 227°
2026-05-08 02:01 -30.12231 154.61802 27113 ft 372 kts 217°
2026-05-08 02:01 -30.14632 154.60578 27111 ft 384 kts 207°
2026-05-08 02:02 -30.17272 154.59894 27109 ft 396 kts 195°
2026-05-08 02:02 -30.20067 154.59834 27106 ft 409 kts 184°
2026-05-08 02:02 -30.22912 154.60465 27106 ft 424 kts 171°
2026-05-08 02:02 -30.25663 154.61833 27107 ft 438 kts 157°
2026-05-08 02:03 -30.28159 154.63935 27105 ft 451 kts 143°
2026-05-08 02:03 -30.30232 154.66716 27108 ft 462 kts 128°
2026-05-08 02:03 -30.31733 154.70028 27107 ft 468 kts 116°
2026-05-08 02:03 -30.33049 154.73486 27103 ft 469 kts 117°
2026-05-08 02:04 -30.34375 154.76941 27104 ft 469 kts 117°
2026-05-08 02:04 -30.35691 154.80394 27103 ft 469 kts 117°
2026-05-08 02:04 -30.37001 154.83856 27101 ft 469 kts 117°
2026-05-08 02:04 -30.38305 154.87321 27101 ft 469 kts 116°
2026-05-08 02:05 -30.39609 154.90792 27102 ft 470 kts 116°
2026-05-08 02:05 -30.40896 154.94219 27098 ft 470 kts 116°
2026-05-08 02:05 -30.42217 154.97735 27097 ft 470 kts 116°
2026-05-08 02:05 -30.43507 155.01164 27096 ft 471 kts 116°
2026-05-08 02:06 -30.44831 155.04683 27095 ft 471 kts 116°
2026-05-08 02:06 -30.46143 155.08166 27093 ft 471 kts 117°
2026-05-08 02:06 -30.47455 155.11645 27089 ft 471 kts 117°
2026-05-08 02:06 -30.48688 155.15163 27090 ft 473 kts 108°
2026-05-08 02:07 -30.49291 155.18869 27090 ft 476 kts 92°
2026-05-08 02:07 -30.49132 155.22685 27093 ft 474 kts 77°
2026-05-08 02:07 -30.48210 155.26320 27091 ft 467 kts 61°
2026-05-08 02:07 -30.46603 155.29526 27088 ft 456 kts 45°
2026-05-08 02:08 -30.44432 155.32111 27086 ft 441 kts 29°
2026-05-08 02:08 -30.41872 155.33937 27087 ft 425 kts 15°
2026-05-08 02:08 -30.39126 155.35044 27087 ft 411 kts
2026-05-08 02:08 -30.36346 155.35489 27090 ft 397 kts 352°
2026-05-08 02:09 -30.33639 155.35315 27089 ft 384 kts 341°
2026-05-08 02:09 -30.31092 155.34572 27088 ft 372 kts 330°
2026-05-08 02:09 -30.28778 155.33328 27089 ft 362 kts 321°
2026-05-08 02:09 -30.26757 155.31659 27089 ft 353 kts 311°
2026-05-08 02:10 -30.25067 155.29646 27090 ft 346 kts 303°
2026-05-08 02:10 -30.23730 155.27354 27094 ft 341 kts 294°
2026-05-08 02:10 -30.22747 155.24876 27094 ft 339 kts 289°
2026-05-08 02:10 -30.21833 155.22400 27096 ft 340 kts 290°
2026-05-08 02:11 -30.20882 155.19895 27094 ft 340 kts 290°
2026-05-08 02:11 -30.19923 155.17391 27096 ft 340 kts 290°
2026-05-08 02:11 -30.18964 155.14893 27094 ft 340 kts 290°
2026-05-08 02:11 -30.18005 155.12391 27095 ft 340 kts 290°
2026-05-08 02:12 -30.17048 155.09891 27093 ft 340 kts 290°
2026-05-08 02:12 -30.16091 155.07384 27097 ft 340 kts 290°
2026-05-08 02:12 -30.15147 155.04912 27096 ft 340 kts 290°
2026-05-08 02:12 -30.14192 155.02410 27098 ft 340 kts 290°
2026-05-08 02:13 -30.13236 154.99904 27096 ft 341 kts 290°
2026-05-08 02:13 -30.12281 154.97397 27096 ft 341 kts 290°
2026-05-08 02:13 -30.11325 154.94889 27098 ft 341 kts 290°
2026-05-08 02:13 -30.10367 154.92377 27097 ft 341 kts 290°
2026-05-08 02:14 -30.09413 154.89873 27096 ft 341 kts 290°
2026-05-08 02:14 -30.08458 154.87362 27101 ft 341 kts 290°
2026-05-08 02:14 -30.07504 154.84857 27101 ft 341 kts 290°
2026-05-08 02:14 -30.06549 154.82345 27098 ft 341 kts 290°
2026-05-08 02:15 -30.05764 154.79775 27100 ft 339 kts 283°
2026-05-08 02:15 -30.05336 154.77099 27102 ft 339 kts 275°
2026-05-08 02:15 -30.05301 154.74384 27096 ft 339 kts 266°
2026-05-08 02:15 -30.05676 154.71694 27099 ft 341 kts 258°
2026-05-08 02:16 -30.06450 154.69122 27100 ft 345 kts 250°
2026-05-08 02:16 -30.07634 154.66683 27104 ft 351 kts 241°
2026-05-08 02:16 -30.09205 154.64486 27102 ft 358 kts 232°
2026-05-08 02:16 -30.11138 154.62614 27101 ft 367 kts 222°
2026-05-08 02:17 -30.13396 154.61152 27105 ft 378 kts 212°
2026-05-08 02:17 -30.15929 154.60187 27101 ft 390 kts 201°
2026-05-08 02:17 -30.18665 154.59806 27100 ft 403 kts 189°
2026-05-08 02:17 -30.21510 154.60091 27101 ft 417 kts 177°
2026-05-08 02:18 -30.24328 154.61096 27103 ft 431 kts 164°
2026-05-08 02:18 -30.26972 154.62845 27099 ft 445 kts 150°
2026-05-08 02:18 -30.29248 154.65276 27099 ft 458 kts 135°
2026-05-08 02:18 -30.31042 154.68355 27096 ft 467 kts 120°
2026-05-08 02:19 -30.32372 154.71791 27092 ft 469 kts 117°
2026-05-08 02:19 -30.33697 154.75243 27094 ft 469 kts 117°
2026-05-08 02:19 -30.35020 154.78700 27095 ft 469 kts 117°
2026-05-08 02:19 -30.36333 154.82158 27096 ft 469 kts 117°
2026-05-08 02:20 -30.37639 154.85621 27096 ft 470 kts 116°
2026-05-08 02:20 -30.38945 154.89095 27095 ft 470 kts 116°
2026-05-08 02:20 -30.40251 154.92571 27094 ft 470 kts 116°
2026-05-08 02:20 -30.41556 154.96045 27090 ft 470 kts 116°
2026-05-08 02:21 -30.42865 154.99529 27091 ft 471 kts 116°
2026-05-08 02:21 -30.44174 155.03008 27088 ft 471 kts 116°
2026-05-08 02:21 -30.45484 155.06487 27089 ft 471 kts 117°
2026-05-08 02:21 -30.46793 155.09961 27088 ft 471 kts 117°
2026-05-08 02:22 -30.48106 155.13448 27086 ft 471 kts 116°
2026-05-08 02:22 -30.49065 155.17044 27084 ft 476 kts 100°
2026-05-08 02:22 -30.49282 155.20865 27085 ft 476 kts 84°
2026-05-08 02:22 -30.48723 155.24618 27084 ft 471 kts 69°
2026-05-08 02:23 -30.47435 155.28056 27084 ft 461 kts 52°
2026-05-08 02:23 -30.45516 155.30969 27080 ft 448 kts 37°
2026-05-08 02:23 -30.43116 155.33168 27080 ft 432 kts 21°
2026-05-08 02:23 -30.40444 155.34601 27079 ft 417 kts
2026-05-08 02:24 -30.37670 155.35352 27080 ft 403 kts 356°
2026-05-08 02:24 -30.34920 155.35467 27083 ft 390 kts 346°
2026-05-08 02:24 -30.32288 155.34990 27084 ft 377 kts 335°
2026-05-08 02:24 -30.29858 155.33980 27084 ft 366 kts 326°
2026-05-08 02:25 -30.27692 155.32508 27084 ft 357 kts 316°
2026-05-08 02:25 -30.25838 155.30652 27082 ft 349 kts 307°
2026-05-08 02:25 -30.24329 155.28489 27089 ft 343 kts 298°
2026-05-08 02:25 -30.23186 155.26087 27087 ft 339 kts 290°
2026-05-08 02:26 -30.22271 155.23574 27087 ft 339 kts 290°
2026-05-08 02:26 -30.21329 155.21067 27088 ft 340 kts 290°
2026-05-08 02:26 -30.20375 155.18570 27087 ft 340 kts 290°
2026-05-08 02:26 -30.19416 155.16072 27088 ft 340 kts 290°
2026-05-08 02:27 -30.18458 155.13574 27089 ft 340 kts 290°
2026-05-08 02:27 -30.17513 155.11107 27089 ft 340 kts 290°
2026-05-08 02:27 -30.16557 155.08606 27086 ft 340 kts 290°
2026-05-08 02:27 -30.15600 155.06100 27088 ft 340 kts 290°
2026-05-08 02:28 -30.14646 155.03601 27086 ft 340 kts 290°
2026-05-08 02:28 -30.13692 155.01100 27087 ft 340 kts 290°
2026-05-08 02:28 -30.12738 154.98596 27087 ft 341 kts 290°
2026-05-08 02:28 -30.11781 154.96088 27088 ft 341 kts 290°
2026-05-08 02:29 -30.10826 154.93581 27088 ft 341 kts 290°
2026-05-08 02:29 -30.09872 154.91076 27092 ft 341 kts 290°
2026-05-08 02:29 -30.08914 154.88561 27092 ft 341 kts 290°
2026-05-08 02:29 -30.07970 154.86081 27091 ft 341 kts 290°
2026-05-08 02:30 -30.07016 154.83573 27092 ft 341 kts 290°
2026-05-08 02:30 -30.06103 154.81052 27095 ft 340 kts 286°
2026-05-08 02:30 -30.05498 154.78418 27093 ft 339 kts 279°
2026-05-08 02:30 -30.05266 154.75714 27093 ft 339 kts 271°
2026-05-08 02:31 -30.05438 154.73005 27095 ft 340 kts 262°
2026-05-08 02:31 -30.06020 154.70350 27094 ft 343 kts 254°
2026-05-08 02:31 -30.07009 154.67825 27093 ft 348 kts 245°
2026-05-08 02:31 -30.08392 154.65503 27093 ft 355 kts 236°
2026-05-08 02:32 -30.10153 154.63459 27095 ft 363 kts 227°
2026-05-08 02:32 -30.12263 154.61781 27097 ft 373 kts 217°
2026-05-08 02:32 -30.14673 154.60561 27093 ft 384 kts 206°
2026-05-08 02:32 -30.17322 154.59883 27097 ft 397 kts 195°
2026-05-08 02:33 -30.20129 154.59833 27098 ft 411 kts 183°
2026-05-08 02:33 -30.22977 154.60479 27094 ft 425 kts 171°
2026-05-08 02:33 -30.25731 154.61865 27093 ft 439 kts 157°
2026-05-08 02:33 -30.28221 154.63984 27092 ft 452 kts 142°
2026-05-08 02:34 -30.30358 154.66638 27090 ft 462 kts 133°
2026-05-08 02:34 -30.32084 154.69885 27094 ft 486 kts 118°
2026-05-08 02:34 -30.33526 154.73492 27087 ft 499 kts 117°
2026-05-08 02:34 -30.34968 154.77149 27086 ft 498 kts 117°
2026-05-08 02:35 -30.36401 154.80787 27088 ft 496 kts 117°
2026-05-08 02:35 -30.37834 154.84424 27082 ft 497 kts 117°
2026-05-08 02:35 -30.39269 154.88067 27085 ft 498 kts 117°
2026-05-08 02:35 -30.40709 154.91719 27085 ft 498 kts 117°
2026-05-08 02:36 -30.42033 154.95440 27083 ft 501 kts 109°
2026-05-08 02:36 -30.42727 154.99397 27081 ft 503 kts 95°
2026-05-08 02:36 -30.42947 155.03449 27080 ft 503 kts 92°
2026-05-08 02:36 -30.43132 155.07497 27081 ft 503 kts 92°
2026-05-08 02:37 -30.43317 155.11559 27081 ft 503 kts 92°
2026-05-08 02:37 -30.43503 155.15616 27079 ft 504 kts 92°
2026-05-08 02:37 -30.43688 155.19618 27078 ft 504 kts 92°
2026-05-08 02:37 -30.43877 155.23669 27079 ft 504 kts 92°
2026-05-08 02:38 -30.44066 155.27723 27079 ft 504 kts 92°
2026-05-08 02:38 -30.44252 155.31775 27076 ft 504 kts 91°
2026-05-08 02:38 -30.44023 155.35814 27079 ft 501 kts 77°
2026-05-08 02:38 -30.43083 155.39681 27075 ft 496 kts 63°
2026-05-08 02:39 -30.41496 155.43170 27073 ft 486 kts 49°
2026-05-08 02:39 -30.39350 155.46127 27074 ft 474 kts 36°
2026-05-08 02:39 -30.36794 155.48445 27075 ft 463 kts 26°
2026-05-08 02:39 -30.34122 155.50544 27073 ft 463 kts 26°
2026-05-08 02:40 -30.31457 155.52629 27068 ft 463 kts 26°
2026-05-08 02:40 -30.28786 155.54719 27072 ft 463 kts 26°
2026-05-08 02:40 -30.26115 155.56809 27071 ft 463 kts 26°
2026-05-08 02:40 -30.23452 155.58893 27070 ft 463 kts 26°
2026-05-08 02:41 -30.20784 155.60981 27070 ft 463 kts 26°
2026-05-08 02:41 -30.18153 155.63038 27072 ft 463 kts 26°
2026-05-08 02:41 -30.15491 155.65119 27073 ft 462 kts 26°
2026-05-08 02:41 -30.12820 155.67206 27072 ft 462 kts 26°
2026-05-08 02:42 -30.10153 155.69292 27073 ft 463 kts 26°
2026-05-08 02:42 -30.07483 155.71382 27072 ft 463 kts 26°
2026-05-08 02:42 -30.04820 155.73470 27074 ft 463 kts 26°
2026-05-08 02:42 -30.02152 155.75564 27071 ft 463 kts 26°
2026-05-08 02:43 -29.99495 155.77654 27072 ft 463 kts 26°
2026-05-08 02:43 -29.96743 155.79496 27069 ft 450 kts 14°
2026-05-08 02:43 -29.93815 155.80555 27071 ft 433 kts
2026-05-08 02:43 -29.90880 155.80784 27072 ft 415 kts 346°
2026-05-08 02:44 -29.88140 155.80220 27069 ft 398 kts 333°
2026-05-08 02:44 -29.85683 155.78913 27078 ft 383 kts 319°
2026-05-08 02:44 -29.83684 155.76968 27069 ft 371 kts 305°
2026-05-08 02:44 -29.82661 155.75374 27075 ft 365 kts 296°
2026-05-08 02:45 -29.81474 155.71806 27077 ft 362 kts 283°
2026-05-08 02:45 -29.80852 155.68923 27077 ft 379 kts 283°
2026-05-08 02:45 -29.80210 155.65910 27078 ft 396 kts 282°
2026-05-08 02:45 -29.79771 155.63839 27078 ft 407 kts 282°
2026-05-08 02:46 -29.79096 155.60654 27076 ft 409 kts 282°
2026-05-08 02:46 -29.78422 155.57473 27076 ft 408 kts 282°
2026-05-08 02:46 -29.77748 155.54288 27077 ft 408 kts 282°
2026-05-08 02:46 -29.76858 155.50082 27082 ft 408 kts 282°
2026-05-08 02:47 -29.76404 155.47941 27078 ft 408 kts 282°
2026-05-08 02:47 -29.75730 155.44754 27079 ft 409 kts 282°
2026-05-08 02:47 -29.75059 155.41578 27080 ft 409 kts 282°
2026-05-08 02:47 -29.74388 155.38401 27080 ft 409 kts 282°
2026-05-08 02:48 -29.73717 155.35223 27079 ft 409 kts 282°
2026-05-08 02:48 -29.73077 155.32081 27080 ft 408 kts 281°
2026-05-08 02:48 -29.72364 155.28910 27083 ft 410 kts 287°
2026-05-08 02:48 -29.71158 155.25930 27082 ft 415 kts 298°
2026-05-08 02:49 -29.69438 155.23245 27084 ft 418 kts 304°
2026-05-08 02:49 -29.67578 155.20665 27082 ft 419 kts 305°
2026-05-08 02:49 -29.65675 155.18119 27083 ft 420 kts 306°
2026-05-08 02:49 -29.63763 155.15588 27086 ft 420 kts 306°
2026-05-08 02:50 -29.61848 155.13052 27086 ft 419 kts 306°
2026-05-08 02:50 -29.59938 155.10519 27085 ft 419 kts 306°
2026-05-08 02:50 -29.58029 155.07982 27088 ft 419 kts 306°
2026-05-08 02:50 -29.56121 155.05446 27085 ft 419 kts 306°
2026-05-08 02:51 -29.54213 155.02910 27089 ft 419 kts 306°
2026-05-08 02:51 -29.52302 155.00371 27089 ft 419 kts 306°
2026-05-08 02:51 -29.50393 154.97837 27101 ft 419 kts 306°
2026-05-08 02:51 -29.48507 154.95335 27097 ft 419 kts 306°
2026-05-08 02:52 -29.46595 154.92800 27094 ft 419 kts 306°
2026-05-08 02:52 -29.44684 154.90267 27092 ft 419 kts 306°
2026-05-08 02:52 -29.42777 154.87743 27093 ft 419 kts 306°
2026-05-08 02:52 -29.40868 154.85217 27088 ft 419 kts 306°
2026-05-08 02:53 -29.38960 154.82693 27091 ft 419 kts 306°
2026-05-08 02:53 -29.37049 154.80167 27094 ft 419 kts 306°
2026-05-08 02:53 -29.35135 154.77639 27092 ft 419 kts 306°
2026-05-08 02:53 -29.33222 154.75114 27090 ft 419 kts 306°
2026-05-08 02:54 -29.31307 154.72588 27089 ft 419 kts 306°
2026-05-08 02:54 -29.29418 154.70097 27091 ft 420 kts 306°
2026-05-08 02:54 -29.27504 154.67575 27095 ft 420 kts 306°
2026-05-08 02:54 -29.25582 154.65043 27093 ft 420 kts 306°
2026-05-08 02:55 -29.23662 154.62518 27090 ft 420 kts 306°
2026-05-08 02:55 -29.19826 154.57474 27095 ft 420 kts 306°
2026-05-08 02:55 -29.17903 154.54948 27093 ft 421 kts 306°
2026-05-08 02:56 -29.15978 154.52420 27097 ft 421 kts 306°
2026-05-08 02:56 -29.14053 154.49895 27093 ft 421 kts 306°
2026-05-08 02:56 -29.12130 154.47373 27093 ft 421 kts 306°
2026-05-08 02:56 -29.10203 154.44849 27096 ft 421 kts 306°
2026-05-08 02:57 -29.08276 154.42325 27095 ft 421 kts 306°
2026-05-08 02:57 -29.06346 154.39799 27095 ft 421 kts 306°
2026-05-08 02:57 -29.04440 154.37306 27097 ft 422 kts 306°
2026-05-08 02:57 -29.02510 154.34783 27098 ft 422 kts 306°
2026-05-08 02:58 -29.00577 154.32259 27100 ft 422 kts 306°
2026-05-08 02:58 -28.98641 154.29732 27098 ft 422 kts 306°
2026-05-08 02:58 -28.96710 154.27212 27102 ft 422 kts 307°
2026-05-08 02:58 -28.94776 154.24690 27103 ft 422 kts 307°
2026-05-08 02:59 -28.92842 154.22170 27103 ft 421 kts 307°
2026-05-08 02:59 -28.90905 154.19647 27102 ft 421 kts 307°
2026-05-08 02:59 -28.88975 154.17136 27102 ft 421 kts 307°
2026-05-08 02:59 -28.87046 154.14627 27104 ft 421 kts 307°
2026-05-08 03:00 -28.85138 154.12148 27097 ft 421 kts 307°
2026-05-08 03:00 -28.83209 154.09641 27102 ft 420 kts 307°
2026-05-08 03:00 -28.81281 154.07139 27103 ft 420 kts 307°
2026-05-08 03:00 -28.79357 154.04642 27098 ft 419 kts 307°
2026-05-08 03:01 -28.77429 154.02142 27098 ft 419 kts 307°
2026-05-08 03:01 -28.75504 153.99648 27109 ft 419 kts 307°
2026-05-08 03:01 -28.73573 153.97145 27104 ft 419 kts 307°
2026-05-08 03:01 -28.71644 153.94649 27108 ft 419 kts 307°
2026-05-08 03:02 -28.69707 153.92168 27105 ft 419 kts 308°
2026-05-08 03:02 -28.67613 153.89834 27099 ft 423 kts 313°
2026-05-08 03:02 -28.65326 153.87706 27110 ft 426 kts 317°
2026-05-08 03:02 -28.62911 153.85809 27097 ft 428 kts 320°
2026-05-08 03:03 -28.60442 153.83918 27101 ft 427 kts 319°
2026-05-08 03:03 -28.57980 153.82019 27109 ft 427 kts 319°
2026-05-08 03:03 -28.55521 153.80118 27116 ft 427 kts 319°
2026-05-08 03:03 -28.53062 153.78218 27115 ft 427 kts 319°
2026-05-08 03:04 -28.50606 153.76322 27115 ft 426 kts 319°
2026-05-08 03:04 -28.48162 153.74437 27095 ft 420 kts 319°
2026-05-08 03:04 -28.45761 153.72591 26868 ft 414 kts 319°
2026-05-08 03:04 -28.43398 153.70774 26615 ft 406 kts 319°
2026-05-08 03:05 -28.41083 153.68993 26363 ft 398 kts 319°
2026-05-08 03:05 -28.38812 153.67246 26128 ft 391 kts 319°
2026-05-08 03:05 -28.36572 153.65521 25887 ft 387 kts 319°
2026-05-08 03:05 -28.34337 153.63798 25487 ft 390 kts 319°
2026-05-08 03:06 -28.32067 153.62044 24720 ft 400 kts 320°
2026-05-08 03:06 -28.29728 153.60237 23656 ft 415 kts 321°
2026-05-08 03:06 -28.27311 153.58379 22889 ft 420 kts 321°
2026-05-08 03:06 -28.24899 153.56551 22360 ft 416 kts 325°
2026-05-08 03:07 -28.22450 153.54822 21749 ft 415 kts 326°
2026-05-08 03:07 -28.20018 153.53078 21148 ft 411 kts 324°
2026-05-08 03:07 -28.17797 153.51074 20524 ft 405 kts 314°
2026-05-08 03:07 -28.15963 153.48689 19976 ft 399 kts 304°
2026-05-08 03:08 -28.14512 153.46032 19386 ft 395 kts 297°
2026-05-08 03:08 -28.13242 153.43287 18820 ft 394 kts 297°
2026-05-08 03:08 -28.11953 153.40547 18183 ft 393 kts 297°
2026-05-08 03:08 -28.10674 153.37861 17616 ft 390 kts 297°
2026-05-08 03:09 -28.09389 153.35165 17009 ft 388 kts 297°
2026-05-08 03:09 -28.08109 153.32470 16394 ft 386 kts 297°
2026-05-08 03:09 -28.06841 153.29796 15802 ft 384 kts 297°
2026-05-08 03:09 -28.05584 153.27143 15184 ft 382 kts 297°
2026-05-08 03:10 -28.04329 153.24494 14582 ft 381 kts 297°
2026-05-08 03:10 -28.03078 153.21855 14013 ft 378 kts 297°
2026-05-08 03:10 -28.01843 153.19256 13120 ft 373 kts 297°
2026-05-08 03:10 -28.00618 153.16682 12145 ft 370 kts 296°
2026-05-08 03:11 -27.99402 153.14125 11207 ft 367 kts 296°
2026-05-08 03:11 -27.98209 153.11621 10470 ft 362 kts 296°
2026-05-08 03:11 -27.97038 153.09163 10292 ft 348 kts 296°
2026-05-08 03:11 -27.95918 153.06819 10108 ft 328 kts 296°
2026-05-08 03:12 -27.94869 153.04621 9927 ft 308 kts 295°
2026-05-08 03:12 -27.93882 153.02553 9684 ft 290 kts 295°
2026-05-08 03:12 -27.92931 153.00553 9202 ft 288 kts 295°
2026-05-08 03:12 -27.91986 152.98563 8753 ft 286 kts 295°
2026-05-08 03:13 -27.91039 152.96579 8305 ft 286 kts 295°
2026-05-08 03:13 -27.90095 152.94608 7840 ft 284 kts 295°
2026-05-08 03:13 -27.89153 152.92644 7374 ft 284 kts 295°
2026-05-08 03:13 -27.88209 152.90680 6918 ft 283 kts 295°
2026-05-08 03:14 -27.87315 152.88707 6413 ft 281 kts 288°
2026-05-08 03:14 -27.86815 152.86632 5955 ft 275 kts 275°
2026-05-08 03:14 -27.86692 152.84502 5518 ft 271 kts 269°
2026-05-08 03:14 -27.86604 152.82378 5063 ft 270 kts 270°
2026-05-08 03:15 -27.86501 152.80267 4600 ft 268 kts 271°
2026-05-08 03:15 -27.86397 152.78180 4216 ft 262 kts 272°
2026-05-08 03:15 -27.85941 152.76255 4067 ft 250 kts 299°
2026-05-08 03:15 -27.84767 152.74902 3948 ft 237 kts 329°
2026-05-08 03:16 -27.83234 152.74397 3847 ft 225 kts 354°
2026-05-08 03:16 -27.81711 152.74262 3745 ft 214 kts 354°
2026-05-08 03:16 -27.80284 152.74109 3650 ft 204 kts 353°
2026-05-08 03:16 -27.78892 152.73938 3495 ft 200 kts 352°
2026-05-08 03:17 -27.77513 152.73763 3277 ft 198 kts 352°
2026-05-08 03:17 -27.76188 152.73593 3207 ft 182 kts 352°
2026-05-08 03:17 -27.74986 152.73442 2997 ft 168 kts 351°
2026-05-08 03:17 -27.73836 152.73296 2647 ft 163 kts 351°
2026-05-08 03:18 -27.72717 152.73150 2247 ft 161 kts 351°
2026-05-08 03:18 -27.71606 152.73004 1851 ft 159 kts 351°
2026-05-08 03:18 -27.70542 152.72869 1651 ft 153 kts 349°
2026-05-08 03:18 -27.69418 152.72727 1448 ft 167 kts 351°
2026-05-08 03:19 -27.68299 152.72589 1128 ft 160 kts 351°
2026-05-08 03:19 -27.67231 152.72459 777 ft 150 kts 352°
2026-05-08 03:19 -27.66236 152.72266 473 ft 142 kts 342°
2026-05-08 03:19 -27.65288 152.71893 247 ft 144 kts 336°
2026-05-08 03:20 -27.64365 152.71483 113 ft 139 kts 336°
2026-05-08 03:20 -27.63562 152.71133 105 ft 106 kts 339°
2026-05-08 03:20 -27.63010 152.70892 107 ft 60 kts 339°
2026-05-08 03:20 -27.62697 152.70755 107 ft 43 kts 339°
2026-05-08 03:21 -27.62459 152.70655 107 ft 27 kts 340°
2026-05-08 03:21 -27.62293 152.70582 107 ft 21 kts 338°
2026-05-08 03:21 -27.62207 152.70529 108 ft 12 kts 310°
2026-05-08 03:21 -27.62210 152.70436 107 ft 13 kts 251°
2026-05-08 03:22 -27.62279 152.70351 106 ft 14 kts 218°
2026-05-08 03:22 -27.62326 152.70273 102 ft 12 kts 249°
2026-05-08 03:22 -27.62359 152.70183 102 ft 12 kts 235°
2026-05-08 03:22 -27.62427 152.70186 103 ft 5 kts 159°
2026-05-08 03:23 -27.62432 152.70188 102 ft 0 kts 159°